Погода в Тёплом

Россия / Тульская область     53°36′57″N   37°35′31″E
темп.,
°C
ветер,
м/с
пор.,
м/с
влажн.,
%
обл.,
%
осадки,
мм/ч
давл.,
гПа
погр.,
м
4 декабря, сб
сб400:000зсз51194100 2.1 1003690
03:00−1з61190100 2.2 1005620
06:00−3зюз613905 0.0 1007512
09:00−4зюз7139292 0.0 1009556
12:00−2з71179100 0.1 1011921
15:00−2зюз610775 0.1 1011753
18:00−3зюз49875 0.0 1013387
21:00−3зюз48925 0.0 1013343
5 декабря, вс
вс500:00−3юз379410 0.0 1014204
03:00−3юз379476 0.0 1015209
06:00−3юз3693100 0.0 1015214
09:00−3ююз3691100 0.0 1016238
12:00−1ююз4685100 0.0 1016295
15:00−2ю24895 0.0 1016157
18:00−3ю35925 0.0 101792
21:00−4ю3592100 0.0 1018111
6 декабря, пн
пн600:00−4ю2588100 0.0 1019114
03:00−3ююв3685100 0.0 1020142
06:00−3ююв3680100 0.0 1019173
09:00−3юв3779100 0.0 1020196
12:00−2юв4971100 0.0 1020371
15:00−2юв4772100 0.0 1020321
18:00−3юв41078100 0.0 1020260
21:00−3юв51084100 0.0 1019322
7 декабря, вт
вт700:00−2юв51196100 0.1 1018399
03:00−1юв61497100 1.4 1016511
06:000юв81697100 3.1 1013555
09:00+1ююв71497100 4.6 1012459
12:00+1ююв511100100 0.1 1012303
15:00+1ююв49100100 0.2 1011224
18:00+1ююв38100100 0.4 1010198
21:00+2ююв310100100 1.5 1010212
8 декабря, ср
ср800:00+3ю511100100 5.9 1009223
03:00+2ю38100100 10.6 1010185
06:00+1ссз2499100 0.1 1011124
09:000ссв4698100 0.1 1013252
12:000св4797100 0.0 1013275
15:00−1ссв5897100 0.3 1014288
18:00−2св51096100 0.0 1014326
21:00−2св51096100 0.0 1014340